TimeCST,TemperatureF,Dew PointF,Humidity,Sea Level PressureIn,VisibilityMPH,Wind Direction,Wind SpeedMPH,Gust SpeedMPH,PrecipitationIn,Events,Conditions,WindDirDegrees,DateUTC
12:52 AM,48.9,46.9,93,29.66,4.0,South,11.5,-,N/A,,Overcast,190,2011-11-26 06:52:00
1:48 AM,48.2,46.4,93,29.64,4.0,SW,8.1,-,N/A,,Overcast,220,2011-11-26 07:48:00
1:52 AM,48.9,46.9,93,29.66,4.0,SW,8.1,-,N/A,,Overcast,220,2011-11-26 07:52:00
2:43 AM,44.6,39.2,81,29.68,9.0,WNW,13.8,19.6,N/A,,Overcast,290,2011-11-26 08:43:00
2:52 AM,44.1,37.9,79,29.70,10.0,WNW,12.7,-,N/A,,Overcast,290,2011-11-26 08:52:00
3:52 AM,39.9,35.1,83,29.72,10.0,NW,17.3,-,N/A,,Clear,310,2011-11-26 09:52:00
4:11 AM,39.2,35.6,87,29.72,7.0,NW,16.1,26.5,N/A,,Mostly Cloudy,320,2011-11-26 10:11:00
4:52 AM,41.0,36.0,82,29.75,7.0,NW,15.0,-,N/A,,Overcast,320,2011-11-26 10:52:00
6:52 AM,39.9,34.0,79,29.83,10.0,NW,23.0,28.8,N/A,,Overcast,310,2011-11-26 12:52:00
7:52 AM,37.9,34.0,86,29.86,10.0,NW,21.9,28.8,N/A,,Overcast,310,2011-11-26 13:52:00
8:52 AM,37.9,33.1,83,29.89,10.0,NW,23.0,31.1,N/A,,Overcast,310,2011-11-26 14:52:00
9:52 AM,37.9,32.0,79,29.92,10.0,NW,24.2,38.0,N/A,,Overcast,320,2011-11-26 15:52:00
10:52 AM,37.0,30.9,79,29.95,10.0,NW,23.0,34.5,N/A,,Overcast,320,2011-11-26 16:52:00
11:11 AM,37.4,30.2,75,29.93,10.0,NW,28.8,36.8,N/A,,Overcast,320,2011-11-26 17:11:00
11:52 AM,37.9,30.9,76,29.95,10.0,NNW,31.1,40.3,N/A,,Overcast,330,2011-11-26 17:52:00
12:52 PM,39.0,32.0,76,29.96,10.0,NNW,24.2,43.7,N/A,,Overcast,330,2011-11-26 18:52:00
1:52 PM,37.9,30.9,76,29.97,10.0,NW,33.4,43.7,N/A,,Overcast,320,2011-11-26 19:52:00
2:52 PM,37.0,28.9,73,30.01,10.0,NNW,32.2,46.0,N/A,,Overcast,330,2011-11-26 20:52:00
3:52 PM,36.0,28.9,76,30.05,8.0,NNW,32.2,42.6,0.00,,Overcast,330,2011-11-26 21:52:00
4:52 PM,36.0,28.0,73,30.08,9.0,NNW,29.9,39.1,N/A,,Overcast,330,2011-11-26 22:52:00
5:52 PM,36.0,28.0,73,30.10,10.0,NNW,28.8,40.3,N/A,,Overcast,330,2011-11-26 23:52:00
6:52 PM,36.0,28.9,76,30.12,10.0,NNW,29.9,40.3,N/A,,Overcast,330,2011-11-27 00:52:00
7:52 PM,36.0,28.0,73,30.14,10.0,NNW,28.8,40.3,N/A,,Overcast,340,2011-11-27 01:52:00
8:52 PM,36.0,27.0,70,30.14,10.0,NNW,27.6,36.8,N/A,,Overcast,330,2011-11-27 02:52:00
9:52 PM,35.1,25.0,67,30.15,10.0,NNW,27.6,39.1,N/A,,Overcast,330,2011-11-27 03:52:00
10:52 PM,35.1,25.0,67,30.16,10.0,NNW,29.9,42.6,N/A,,Overcast,330,2011-11-27 04:52:00
11:52 PM,34.0,23.0,64,30.16,10.0,NNW,31.1,42.6,N/A,,Overcast,330,2011-11-27 05:52:00